Location: Street
(51.1247°N, 2.7429°W)
Time: 18:52:01
(UTC+00:00)

N. Korean satellite - Pass Details

Date: 27 October 2020
Orbit: 453 x 503 km, 97.2° (Epoch: 04 December)

Event Time Altitude Azimuth Distance (km) Brightness Sun altitude
Rises 17:35:52 0° 197° (SSW) 2,546 10.6 -7.2°
Reaches altitude 10° 17:38:16 10° 213° (SSW) 1,661 10.0 -7.6°
Maximum altitude 17:41:08 22° 266° (W) 1,081 9.5 -8.1°
Drops below altitude 10° 17:43:59 10° 320° (NW) 1,649 9.7 -8.5°
Sets 17:46:21 0° 336° (NNW) 2,523 10.4 -8.9°
